{"data":{"norad_id":68290,"epoch":"2026-09-20T01:28:47.396352Z","epoch_age_seconds":89666,"freshness":"FRESH","line1":"1 68290U 26055AE  26263.06165968  .00021160  00000+0  63546-3 0  9999","line2":"2 68290  53.1558 131.9255 0001145  62.4957 297.6162 15.34408439 29751","mean_motion":15.34408439,"eccentricity":0.0001145,"inclination_deg":53.1558,"raan_deg":131.9255,"arg_perigee_deg":62.4957,"mean_anomaly_deg":297.6162,"bstar":0.00063546,"rev_number":2975,"period_min":93.847241933737,"perigee_km":461.89488450005,"apogee_km":463.4614311712,"semimajor_km":6840.8151578356,"source":"CELESTRAK","updated_at":"2026-09-20T09:00:43.852338Z"}}